Temp
3 3 3 2 2 2 2 2 1 1 1 0 0 -0 -0 -1 -1 -1 -1 -2 -2 -2 -2 -2 -2 -2 -2 -1 -1 -1 -1 -0 -0 0 -0 0 1 1 2 2 2 2 2
3 3 3 2 2 2 2 1 1 0 -0 -1 -1 -1 -2 -2 -2 -2 -2 -3 -3 -3 -3 -3 -3 -3 -3 -2 -2 -2 -1 -1 -1 -1 -0 0 -0 0 1 1 2 2 2
3 3 3 2 2 1 1 1 -0 -1 -1 -2 -2 -2 -3 -3 -3 -3 -4 -4 -4 -4 -4 -4 -3 -3 -3 -3 -3 -3 -3 -2 -2 -2 -2 -1 -0 0 -0 -0 -0 0 1
3 3 2 2 1 0 -0 -1 -2 -3 -3 -4 -4 -4 -4 -4 -4 -5 -5 -5 -4 -4 -4 -4 -4 -4 -4 -4 -4 -4 -4 -4 -4 -4 -3 -3 -2 -1 0 -0 -1 -2 -2
2 2 1 0 -1 -2 -3 -3 -4 -4 -5 -5 -5 -6 -6 -6 -6 -6 -6 -6 -6 -6 -5 -5 -5 -5 -5 -5 -5 -5 -5 -5 -5 -5 -5 -5 -5 -4 -3 -1 -1 -2 -2
2 1 0 -0 -1 -2 -3 -4 -5 -5 -6 -6 -7 -7 -7 -8 -8 -8 -8 -8 -7 -7 -7 -7 -7 -6 -7 -7 -7 -7 -7 -7 -7 -7 -6 -6 -7 -7 -6 -5 -4 -2 -2
1 1 0 -0 -2 -3 -5 -5 -6 -6 -7 -7 -8 -8 -8 -9 -9 -9 -10 -10 -10 -9 -9 -9 -9 -9 -9 -8 -9 -9 -9 -9 -9 -9 -9 -9 -9 -9 -9 -8 -7 -6 -5
1 0 -0 -2 -3 -5 -6 -7 -7 -8 -8 -9 -9 -10 -10 -11 -11 -11 -11 -12 -11 -11 -11 -11 -11 -10 -10 -10 -10 -10 -11 -11 -11 -11 -12 -12 -12 -12 -12 -11 -11 -10 -9
-1 -1 -1 -2 -3 -5 -7 -8 -9 -9 -9 -10 -10 -11 -12 -12 -12 -12 -12 -12 -12 -12 -12 -11 -11 -11 -12 -12 -12 -13 -13 -13 -14 -14 -14 -14 -14 -14 -14 -14 -14 -14 -13
-3 -3 -2 -3 -4 -5 -7 -9 -9 -10 -10 -11 -12 -12 -13 -13 -13 -13 -13 -13 -13 -12 -12 -12 -12 -12 -13 -13 -14 -14 -15 -15 -15 -16 -16 -16 -16 -16 -16 -16 -15 -15 -15
-4 -4 -4 -5 -5 -6 -8 -9 -10 -11 -11 -12 -13 -13 -13 -13 -13 -13 -13 -13 -13 -13 -13 -13 -13 -14 -14 -15 -15 -16 -16 -16 -17 -17 -17 -17 -17 -17 -17 -17 -16 -16 -16
-7 -6 -6 -6 -6 -7 -9 -11 -11 -12 -12 -13 -13 -14 -14 -14 -14 -13 -13 -13 -13 -14 -14 -14 -15 -16 -16 -17 -17 -17 -17 -17 -17 -17 -18 -18 -18 -18 -18 -18 -17 -17 -17
-9 -9 -8 -8 -9 -10 -11 -12 -13 -13 -14 -14 -14 -14 -14 -14 -14 -14 -14 -14 -15 -15 -15 -16 -17 -18 -18 -18 -18 -18 -18 -18 -18 -18 -18 -18 -18 -18 -18 -19 -18 -18 -18
-10 -11 -11 -11 -11 -12 -13 -14 -14 -14 -14 -14 -15 -15 -15 -15 -15 -15 -16 -16 -17 -17 -18 -18 -19 -19 -19 -19 -19 -19 -19 -19 -19 -19 -19 -19 -19 -19 -19 -19 -19 -19 -19
-12 -13 -13 -13 -14 -14 -15 -15 -15 -16 -15 -15 -15 -16 -16 -16 -17 -17 -18 -18 -18 -19 -20 -20 -20 -20 -20 -20 -20 -20 -20 -20 -19 -19 -19 -19 -20 -19 -20 -20 -20 -20 -20
-14 -15 -15 -15 -15 -16 -16 -16 -16 -16 -16 -17 -17 -17 -17 -18 -18 -19 -19 -19 -20 -20 -20 -20 -21 -21 -21 -21 -21 -20 -20 -20 -20 -20 -20 -20 -20 -20 -20 -20 -20 -20 -20
-15 -16 -16 -16 -16 -16 -17 -18 -18 -18 -18 -18 -18 -18 -19 -19 -19 -19 -20 -20 -20 -20 -21 -21 -21 -21 -21 -21 -21 -21 -21 -21 -21 -21 -21 -21 -21 -21 -21 -21 -21 -20 -20
-16 -17 -17 -18 -18 -18 -18 -18 -18 -18 -18 -18 -19 -19 -20 -20 -20 -20 -20 -20 -21 -21 -21 -21 -22 -22 -22 -22 -22 -22 -22 -21 -21 -21 -21 -21 -21 -21 -21 -21 -21 -21 -20
-18 -18 -19 -19 -19 -19 -19 -19 -19 -19 -19 -19 -20 -20 -20 -20 -20 -20 -21 -21 -21 -21 -21 -22 -22 -22 -22 -23 -22 -22 -22 -22 -22 -22 -22 -22 -22 -22 -22 -22 -21 -21 -21
-18 -18 -18 -19 -19 -20 -20 -20 -19 -20 -20 -20 -20 -21 -21 -21 -21 -21 -21 -22 -22 -22 -22 -22 -22 -23 -23 -23 -23 -23 -23 -23 -23 -23 -22 -22 -22 -22 -22 -22 -22 -22 -21
-20 -20 -20 -20 -20 -20 -20 -20 -20 -20 -21 -21 -20 -20 -21 -21 -21 -21 -22 -22 -22 -23 -23 -23 -23 -23 -24 -24 -24 -24 -24 -24 -23 -23 -23 -23 -23 -23 -22 -22 -23 -22 -22
-21 -21 -21 -20 -21 -21 -21 -21 -20 -21 -21 -21 -21 -21 -21 -21 -21 -21 -22 -23 -23 -23 -23 -24 -24 -24 -24 -25 -25 -25 -25 -24 -24 -24 -24 -23 -23 -23 -23 -24 -23 -23 -24
-21 -21 -21 -21 -21 -21 -21 -21 -21 -21 -21 -21 -21 -21 -22 -22 -22 -22 -22 -23 -24 -24 -24 -24 -24 -24 -25 -25 -25 -25 -25 -25 -25 -24 -24 -24 -24 -24 -25 -25 -24 -24 -24
-22 -22 -22 -21 -21 -22 -22 -22 -22 -22 -22 -22 -22 -22 -22 -23 -23 -23 -23 -24 -24 -25 -25 -25 -25 -25 -25 -26 -26 -26 -26 -26 -25 -25 -25 -26 -25 -26 -25 -25 -25 -25 -24
-24 -23 -23 -23 -23 -23 -23 -23 -23 -23 -23 -23 -23 -23 -23 -23 -23 -23 -24 -24 -25 -25 -25 -25 -25 -25 -26 -26 -27 -26 -26 -26 -26 -26 -26 -26 -26 -26 -26 -25 -25 -24 -24
-25 -25 -25 -25 -24 -24 -24 -24 -25 -25 -24 -24 -24 -24 -24 -24 -24 -24 -25 -25 -26 -26 -26 -26 -26 -25 -26 -27 -27 -27 -27 -27 -27 -26 -26 -26 -26 -26 -26 -25 -25 -24 -24
Height
3105 3106 3107 3108 3110 3112 3113 3114 3115 3116 3116 3117 3116 3116 3116 3116 3116 3115 3115 3115 3115 3116 3116 3116 3117 3117 3117 3117 3116 3116 3116 3116 3116 3117 3118 3116 3115 3115 3114 3114 3113 3114 3115
3098 3099 3101 3102 3103 3105 3106 3107 3107 3108 3109 3109 3109 3109 3109 3108 3108 3108 3108 3108 3108 3108 3108 3108 3109 3108 3108 3108 3108 3107 3105 3104 3105 3105 3105 3107 3107 3104 3103 3102 3102 3102 3102
3091 3092 3094 3096 3097 3097 3097 3098 3098 3099 3099 3100 3101 3101 3101 3100 3101 3101 3101 3100 3100 3100 3101 3100 3100 3100 3099 3097 3096 3095 3095 3094 3093 3093 3094 3093 3093 3094 3095 3092 3091 3090 3090
3080 3081 3082 3083 3085 3086 3087 3088 3088 3089 3090 3091 3091 3091 3091 3091 3092 3092 3092 3092 3092 3092 3092 3091 3090 3089 3088 3087 3086 3085 3085 3084 3082 3081 3081 3081 3080 3079 3081 3084 3082 3081 3079
3073 3074 3076 3077 3077 3078 3079 3080 3081 3082 3083 3083 3084 3084 3084 3084 3083 3084 3083 3083 3083 3083 3082 3082 3081 3080 3079 3078 3077 3076 3075 3074 3073 3070 3068 3067 3065 3065 3065 3064 3070 3069 3068
3066 3067 3066 3066 3067 3068 3070 3071 3072 3073 3074 3075 3075 3075 3075 3075 3075 3075 3075 3074 3074 3073 3073 3072 3071 3070 3069 3068 3067 3066 3064 3063 3061 3059 3057 3056 3054 3052 3048 3048 3049 3054 3056
3057 3056 3056 3058 3058 3060 3061 3062 3064 3065 3066 3067 3067 3067 3067 3067 3067 3067 3066 3066 3065 3064 3063 3062 3061 3060 3059 3057 3057 3055 3053 3052 3050 3048 3045 3043 3042 3040 3039 3035 3033 3031 3037
3049 3048 3048 3049 3050 3052 3053 3054 3056 3056 3057 3058 3059 3059 3059 3059 3058 3058 3058 3057 3056 3055 3053 3052 3051 3049 3047 3046 3045 3043 3041 3039 3038 3037 3034 3032 3030 3028 3026 3025 3022 3019 3018
3041 3041 3042 3042 3043 3043 3044 3046 3047 3048 3050 3050 3050 3050 3050 3050 3050 3049 3048 3047 3045 3043 3042 3040 3038 3037 3035 3033 3032 3030 3029 3027 3025 3024 3023 3021 3020 3017 3015 3013 3012 3008 3003
3034 3035 3036 3035 3035 3035 3036 3038 3039 3040 3041 3042 3042 3042 3042 3041 3040 3039 3037 3035 3033 3031 3029 3027 3026 3024 3022 3021 3019 3016 3015 3014 3012 3010 3010 3009 3007 3006 3005 3003 3001 2999 2995
3028 3028 3028 3028 3028 3029 3029 3030 3031 3032 3033 3033 3033 3033 3032 3031 3029 3028 3025 3023 3021 3019 3017 3015 3013 3012 3010 3007 3005 3003 3000 2999 2999 2996 2995 2995 2994 2993 2993 2991 2990 2989 2987
3021 3021 3021 3021 3021 3021 3020 3021 3022 3023 3024 3024 3023 3022 3021 3020 3017 3015 3013 3011 3009 3006 3004 3003 3000 2998 2995 2993 2990 2989 2987 2986 2985 2983 2981 2980 2981 2980 2980 2978 2978 2977 2977
3012 3013 3013 3014 3013 3013 3012 3013 3013 3013 3013 3013 3012 3011 3010 3008 3005 3003 3001 2998 2995 2993 2991 2988 2986 2984 2981 2979 2977 2975 2974 2972 2971 2970 2969 2968 2967 2967 2967 2966 2965 2966 2964
3004 3004 3004 3005 3004 3004 3004 3003 3003 3002 3002 3001 3000 2999 2998 2995 2993 2990 2988 2985 2982 2979 2977 2974 2971 2970 2968 2966 2965 2963 2961 2960 2958 2957 2956 2955 2954 2955 2954 2953 2954 2953 2952
2994 2994 2994 2994 2994 2994 2994 2993 2992 2991 2989 2988 2987 2986 2983 2981 2979 2976 2972 2969 2967 2964 2962 2960 2958 2956 2954 2954 2953 2951 2949 2947 2946 2945 2944 2943 2942 2943 2943 2942 2943 2942 2941
2985 2985 2985 2985 2984 2983 2983 2982 2981 2978 2975 2974 2973 2972 2970 2966 2962 2959 2956 2954 2952 2950 2947 2946 2944 2943 2942 2942 2941 2938 2936 2935 2934 2933 2932 2931 2931 2931 2931 2931 2931 2931 2930
2978 2977 2977 2975 2974 2972 2969 2970 2968 2965 2962 2960 2958 2956 2953 2949 2947 2943 2941 2939 2937 2935 2933 2932 2931 2930 2929 2929 2928 2926 2924 2922 2922 2921 2920 2920 2920 2920 2919 2919 2919 2919 2920
2969 2967 2966 2964 2962 2960 2958 2957 2953 2950 2947 2944 2943 2940 2936 2933 2931 2929 2928 2926 2923 2921 2919 2918 2917 2915 2916 2916 2914 2913 2911 2909 2908 2909 2908 2907 2908 2908 2908 2907 2907 2908 2908
2959 2957 2954 2951 2948 2947 2945 2939 2936 2934 2931 2930 2928 2925 2921 2919 2918 2916 2915 2913 2909 2907 2906 2904 2903 2902 2902 2902 2901 2900 2898 2896 2895 2897 2896 2896 2896 2898 2896 2895 2895 2895 2895
2948 2944 2941 2936 2933 2933 2928 2924 2922 2919 2918 2917 2913 2910 2908 2906 2905 2903 2901 2899 2896 2894 2892 2890 2889 2888 2887 2888 2888 2886 2884 2883 2883 2884 2884 2885 2885 2885 2885 2884 2883 2881 2884
2933 2930 2926 2922 2920 2917 2914 2911 2909 2906 2906 2901 2899 2897 2895 2893 2891 2889 2887 2885 2883 2881 2879 2877 2876 2874 2874 2874 2874 2873 2871 2870 2870 2870 2872 2873 2873 2873 2874 2873 2872 2870 2871
2919 2917 2912 2909 2907 2905 2900 2897 2894 2895 2890 2888 2886 2884 2882 2880 2877 2875 2873 2871 2870 2868 2866 2864 2863 2862 2862 2861 2861 2861 2859 2859 2857 2858 2860 2860 2861 2861 2861 2861 2860 2860 2860
2904 2901 2898 2895 2893 2891 2888 2884 2884 2880 2878 2875 2873 2871 2868 2866 2864 2862 2860 2858 2856 2854 2853 2851 2850 2850 2850 2848 2848 2848 2847 2847 2847 2848 2849 2849 2849 2850 2850 2850 2849 2849 2847
2888 2884 2881 2878 2877 2875 2872 2869 2868 2866 2863 2861 2859 2857 2854 2853 2851 2849 2846 2844 2843 2841 2840 2839 2838 2837 2837 2837 2837 2836 2836 2837 2838 2839 2839 2839 2839 2840 2839 2838 2838 2836 2834
2872 2869 2865 2862 2860 2858 2856 2854 2852 2849 2847 2845 2844 2842 2841 2839 2838 2835 2834 2831 2830 2828 2826 2827 2826 2826 2825 2827 2826 2825 2826 2828 2829 2830 2830 2831 2830 2828 2827 2826 2825 2824 2822
2858 2854 2850 2847 2845 2842 2840 2838 2837 2834 2832 2830 2829 2828 2827 2826 2824 2822 2821 2819 2817 2817 2815 2815 2815 2815 2814 2816 2816 2816 2818 2820 2822 2823 2823 2820 2819 2818 2817 2816 2814 2813 2811
Wind_Speed
34 35 35 34 34 33 33 33 33 34 34 35 35 35 35 35 35 35 35 34 33 32 31 31 30 30 30 31 32 34 36 38 39 38 36 38 40 41 41 43 45 46 47
30 32 33 32 33 34 35 35 36 36 36 37 37 36 36 36 36 36 36 35 33 32 31 31 31 32 32 34 36 38 41 43 43 44 43 41 40 41 42 43 45 46 48
31 31 32 34 35 37 38 39 39 39 38 37 37 38 38 38 37 37 36 35 35 34 34 34 34 35 37 38 40 43 45 47 48 47 47 46 45 43 39 41 43 44 47
36 38 40 41 42 42 42 41 40 39 38 38 37 37 38 38 38 37 37 36 36 36 35 36 37 38 40 42 46 49 51 53 54 54 50 47 46 45 46 40 40 42 45
38 39 40 42 44 43 41 40 38 38 38 38 37 37 37 37 37 37 37 37 37 37 37 38 39 40 43 46 50 54 56 57 58 58 55 51 48 46 46 47 42 42 42
34 38 42 46 46 45 44 41 40 40 39 37 37 37 37 37 37 37 37 37 38 39 39 40 42 44 47 50 56 60 62 63 60 56 53 51 49 48 49 50 48 45 44
32 37 40 42 44 45 43 42 41 39 38 38 38 38 39 38 38 38 37 37 38 39 41 43 45 47 51 55 61 65 68 62 56 52 51 50 48 48 48 51 52 53 48
31 34 36 38 40 41 41 40 39 39 39 38 38 39 39 39 38 38 38 39 40 43 44 47 50 53 56 61 68 69 59 55 53 50 49 48 48 48 48 49 51 54 54
32 34 34 35 37 39 40 40 40 39 38 39 39 40 40 39 40 41 43 45 46 48 51 53 55 59 62 66 64 58 54 51 50 48 47 48 47 48 48 48 48 51 55
27 30 34 37 39 39 40 40 39 39 40 40 40 40 40 41 43 45 47 48 51 54 57 58 61 63 65 62 59 56 54 53 51 50 49 48 48 49 48 49 49 49 51
22 26 29 33 36 37 39 40 40 40 40 41 41 42 44 45 48 49 52 55 58 60 62 61 63 63 60 59 58 56 55 54 53 51 51 49 49 50 50 50 51 50 51
20 23 28 32 35 38 40 40 39 40 41 43 44 46 47 50 53 55 58 61 63 63 63 64 63 60 57 54 51 50 49 50 50 49 50 50 49 50 50 50 50 50 49
23 25 28 33 37 40 40 40 40 41 44 46 48 50 52 55 58 62 62 61 62 63 62 58 55 53 50 49 48 48 48 48 49 49 49 50 49 48 48 48 48 48 48
25 27 30 34 38 40 41 41 43 45 48 50 52 52 55 60 61 59 60 62 60 57 55 54 52 50 50 49 47 45 44 44 44 45 46 46 47 46 45 45 44 45 46
30 31 34 37 40 41 42 43 45 48 52 54 56 56 55 56 59 60 58 56 54 52 51 51 50 49 47 44 43 44 45 44 43 43 44 44 45 44 43 44 43 43 44
31 32 35 38 40 42 46 48 49 51 53 53 53 55 57 56 54 51 50 50 49 48 49 48 47 46 44 43 42 43 43 43 43 42 42 42 43 42 42 42 42 43 44
30 33 37 41 44 45 46 46 48 51 54 57 57 54 50 49 48 48 48 47 47 46 46 46 45 44 43 42 42 42 43 44 43 42 41 41 41 40 41 41 41 42 42
32 35 37 39 42 45 48 51 55 56 55 52 49 46 45 46 47 47 45 45 45 45 45 45 45 45 44 43 43 43 43 44 43 42 41 41 40 39 39 40 42 43 43
33 37 41 46 51 54 56 55 52 50 50 49 48 47 48 48 47 46 45 44 44 44 44 44 44 44 44 43 43 43 44 45 45 42 41 41 40 38 39 42 42 43 44
44 52 56 52 49 48 50 52 52 51 49 45 46 47 47 46 45 44 44 44 44 44 44 44 43 43 44 41 41 42 44 46 44 43 42 41 41 39 40 41 43 45 43
47 48 49 49 47 46 46 46 45 44 40 42 43 43 43 42 42 43 43 43 43 44 44 43 42 42 42 41 39 39 42 43 43 42 40 40 40 40 40 40 38 41 42
41 41 43 43 42 41 42 43 44 39 41 42 42 42 41 41 42 42 43 43 44 44 44 43 42 41 39 39 38 38 39 40 41 40 38 38 38 37 38 38 40 38 34
46 45 45 45 44 43 43 45 42 43 43 44 43 43 43 42 41 42 42 42 43 43 43 42 42 39 37 37 36 37 37 37 38 37 36 35 35 35 33 32 34 35 34
46 45 46 47 47 44 44 46 44 43 44 44 43 43 43 42 41 41 42 42 42 42 42 41 40 38 36 35 34 34 35 34 32 30 28 27 29 28 30 30 33 38 41
44 44 44 44 44 43 43 42 42 43 44 44 43 43 42 41 40 41 41 41 41 40 41 39 37 37 36 32 32 34 32 28 26 22 18 26 29 30 33 36 38 39 39
43 42 41 42 41 40 39 38 38 39 41 42 42 41 40 39 39 39 38 38 39 38 39 37 36 35 34 32 31 30 27 22 19 22 30 35 37 40 40 38 36 35 35
Wind_Direction
247 246 245 245 245 245 248 250 252 254 256 257 259 260 262 265 267 268 269 268 268 268 268 268 268 267 268 270 273 276 278 280 282 281 282 284 282 278 274 270 269 266 264
247 247 245 243 243 247 249 251 252 254 255 257 258 260 263 265 267 268 269 269 270 271 271 272 273 274 275 277 280 283 287 286 287 288 286 282 279 279 276 273 269 267 265
243 241 243 246 249 251 252 252 253 252 253 254 256 259 261 263 264 265 266 266 268 269 271 273 275 278 282 285 289 292 294 295 293 293 293 291 283 277 270 269 268 265 263
242 240 240 243 245 248 250 250 249 249 249 250 252 254 256 257 258 259 261 263 264 267 270 273 277 281 285 289 292 296 298 298 299 298 296 292 288 282 275 267 260 261 262
245 248 249 249 249 249 249 251 251 253 253 254 255 257 258 258 258 260 263 266 268 270 274 277 281 284 287 290 293 296 297 298 299 298 298 296 292 287 281 274 265 262 258
252 252 250 249 250 250 250 250 250 250 251 252 254 255 256 257 259 262 264 268 272 275 278 281 284 286 291 295 297 299 300 301 300 297 295 292 291 291 289 284 278 268 262
245 247 250 252 253 251 250 249 248 249 251 252 252 253 255 256 258 261 265 270 275 279 283 286 290 292 295 298 300 301 302 300 297 295 293 291 289 287 286 286 286 284 276
248 251 249 248 249 248 247 247 247 248 248 249 250 251 252 255 259 264 270 275 280 285 289 291 294 296 299 301 301 300 296 294 293 290 288 288 287 286 285 284 285 284 284
244 247 249 252 250 247 244 244 245 247 248 249 248 250 253 257 263 269 274 279 284 289 292 295 297 298 300 300 297 294 292 289 288 286 284 282 281 281 281 281 281 283 285
244 246 249 249 246 244 243 244 246 247 248 247 248 251 256 262 268 273 279 286 291 293 296 297 297 298 297 293 291 290 288 286 284 281 279 276 275 274 274 276 276 277 281
249 245 248 249 248 247 246 245 245 246 246 247 250 254 259 266 273 280 286 290 291 293 294 294 293 292 290 289 288 286 285 282 280 278 277 275 272 271 271 272 272 273 275
249 250 247 245 244 243 242 243 245 245 246 248 252 258 265 272 277 284 288 290 291 292 291 290 289 288 287 285 284 282 280 279 277 276 274 274 273 273 273 271 270 270 270
267 257 252 247 245 243 243 243 243 244 247 252 258 263 270 276 282 285 289 289 288 287 288 287 286 286 285 284 283 282 280 277 275 274 272 271 272 272 272 270 270 269 269
262 254 250 247 246 245 243 242 244 248 254 258 264 272 278 282 285 285 285 285 285 285 285 284 283 283 282 281 280 279 279 277 276 275 272 271 270 271 270 269 268 268 269
263 254 247 244 242 243 244 248 252 256 262 268 275 280 281 281 283 284 283 282 282 281 281 281 280 280 279 277 276 276 276 276 275 273 271 269 269 268 267 267 267 268 268
254 247 245 245 246 248 252 258 265 272 275 277 278 280 282 282 281 281 280 280 280 281 280 280 279 277 276 275 274 274 274 274 274 273 270 269 268 267 266 266 266 266 268
255 252 253 257 262 267 270 274 275 276 277 280 282 282 281 281 281 280 280 282 282 281 280 279 277 276 274 273 272 272 272 273 272 272 271 269 268 267 265 265 265 265 267
263 265 268 269 270 271 275 278 279 280 280 281 282 282 281 281 280 282 284 284 283 282 281 279 277 275 273 272 271 270 271 271 272 271 271 270 269 268 267 266 265 266 266
269 272 276 277 277 279 282 280 279 280 281 282 282 281 279 280 282 283 283 283 282 281 281 280 278 276 274 271 269 269 269 269 269 270 270 270 270 270 269 269 270 269 269
275 279 282 281 279 279 279 279 279 279 280 282 279 278 279 280 282 283 282 282 282 282 281 281 280 278 276 273 271 268 268 268 269 268 268 268 269 267 267 270 271 273 274
280 281 281 280 280 279 278 278 278 278 281 277 278 279 282 284 284 283 283 282 282 281 281 281 280 277 276 274 271 269 268 269 268 268 268 267 267 267 266 268 271 272 275
283 282 281 280 279 279 280 280 279 283 279 280 280 282 283 283 283 284 284 283 281 280 280 280 279 278 276 273 270 268 266 267 269 269 268 267 267 268 268 268 270 276 281
288 286 283 281 280 279 278 276 278 276 277 277 278 279 279 280 281 282 283 281 280 278 278 278 278 278 275 273 270 268 267 267 267 269 269 268 267 269 274 271 270 272 273
290 287 284 282 281 279 277 277 276 275 275 275 276 276 276 278 278 279 280 279 278 277 276 276 277 278 274 270 269 267 264 265 268 270 271 273 270 267 269 272 266 264 265
291 289 287 285 283 281 279 278 276 275 274 273 272 273 275 276 276 276 277 277 276 275 274 274 274 274 272 270 265 263 265 264 265 266 266 290 280 278 269 267 271 276 277
294 292 291 288 287 284 283 280 277 275 273 273 274 275 275 274 275 276 276 275 274 271 271 272 271 269 269 264 262 265 265 264 261 262 273 262 262 264 272 278 278 276 277